Weather reports worldwide

Advertisment
Rodez, France (7552): temperature & dewpoint: 15.05.2019 13:00:00 - 21.05.2019 13:00:00 (CEST)Rodez, France (7552): temperature 5cm: 15.05.2019 13:00:00 - 21.05.2019 13:00:00 (CEST)Rodez, France (7552): wind speed & gusts: 15.05.2019 13:00:00 - 21.05.2019 13:00:00 (CEST)Rodez, France (7552): wind direction: 15.05.2019 13:00:00 - 21.05.2019 13:00:00 (CEST)Rodez, France (7552): reduced air pressure: 15.05.2019 13:00:00 - 21.05.2019 13:00:00 (CEST)Rodez, France (7552): visibility: 15.05.2019 13:00:00 - 21.05.2019 13:00:00 (CEST)Rodez, France (7552): sunshine duration: 15.05.2019 13:00:00 - 21.05.2019 13:00:00 (CEST)Rodez, France (7552): precipitation: 15.05.2019 13:00:00 - 21.05.2019 13:00:00 (CEST)
Date & Time tt [°C] td [°C] tt 5cm [°C] ff [km/h] ff [kn] fx [km/h] fx [kn] dd ppp [hPa] vv [km] sd [min] rr [mm]
21.05.2019 13:00:00 14,4 11,4 18,3 18 10 31 17 WNW 1016,8 13 26 0,0
21.05.2019 12:00:00 13,3 10,8 14,4 13 7 22 12 W 1017,1 13 8 0,0
21.05.2019 11:00:00 10,6 10,0 11,8 12 6 20 11 W 1017,7 11 2 0,0
21.05.2019 10:00:00 8,9 8,9 10,5 8 4 13 7 W 1018,0 0,5 0 0,0
21.05.2019 09:00:00 8,5 8,5 9,5 6 4 15 8 WSW 1017,7 0,2 0 0,0
21.05.2019 08:00:00 8,1 8,1 7,4 5 3 8 5 SW 1017,2 0,2 0 0,0
21.05.2019 07:00:00 6,8 6,8 5,3 3 1 6 3 W 1017,0 0,1 0 0,0
21.05.2019 06:00:00 5,8 5,8 4,6 3 2 9 5 S 1017,1 0,2 0 0,0
21.05.2019 05:00:00 5,1 5,1 2,0 6 3 9 5 SSW 1017,2 0,4 0 0,0
21.05.2019 04:00:00 4,7 4,3 1,8 4 2 6 3 SSE 1017,4 0,2 0 0,0
21.05.2019 03:00:00 6,6 6,6 2,1 3 2 11 6 SW 1016,9 0,6 0 0,0
21.05.2019 02:00:00 6,9 6,8 3,4 8 5 10 6 WSW 1016,9 7 0 0,0
21.05.2019 01:00:00 7,5 6,6 4,9 10 6 15 8 WNW 1016,9 16 0 0,0
21.05.2019 00:00:00 8,6 7,8 6,9 10 5 17 9 WNW 1016,6 20 0 0,0
20.05.2019 23:00:00 10,0 8,4 8,8 12 6 21 11 WNW 1015,9 33 0 0,0
20.05.2019 22:00:00 10,2 8,5 9,2 16 9 27 15 W 1015,1 37 0 0,0
20.05.2019 21:00:00 12,2 8,5 12,0 16 9 29 16 W 1014,1 57 31 0,0
20.05.2019 20:00:00 13,1 8,4 13,1 19 10 31 17 W 1013,5 59 31 0,0
20.05.2019 19:00:00 13,7 8,7 14,7 18 10 31 17 W 1013,2 49 31 0,0
20.05.2019 18:00:00 14,5 7,8 18,4 15 8 30 16 WNW 1012,8 59 46 0,0
20.05.2019 17:00:00 14,1 7,6 17,2 15 8 30 16 WNW 1012,9 48 15 0,0
20.05.2019 16:00:00 13,7 7,7 14,7 21 11 35 19 NW 1013,2 48 14 0,0
20.05.2019 15:00:00 12,8 7,5 15,0 20 11 30 16 WNW 1013,5 55 35 0,0
20.05.2019 14:00:00 13,2 9,3 12,4 19 10 31 17 WNW 1013,5 60 12 0,0
20.05.2019 13:00:00 11,0 8,4 12,6 16 9 34 18 NW 1013,9 32 4 0,0
20.05.2019 12:00:00 11,0 8,9 10,7 20 11 33 18 WNW 1013,6 20 0 0,0
20.05.2019 11:00:00 9,6 8,7 9,0 20 11 28 15 WNW 1013,9 17 0 0,0
20.05.2019 10:00:00 8,8 8,2 8,4 20 11 37 20 WNW 1013,8 11 0 0,0
20.05.2019 09:00:00 8,3 8,2 8,1 25 13 41 22 WNW 1013,4 6 0 0,0
20.05.2019 08:00:00 8,2 7,9 8,1 27 14 38 21 WNW 1012,7 6 0 0,0
20.05.2019 07:00:00 8,4 8,3 8,4 22 12 38 20 W 1012,3 4,3 0 0,0
20.05.2019 06:00:00 8,6 8,5 8,5 20 11 30 16 W 1011,7 2,7 0 0,0
20.05.2019 05:00:00 8,7 8,4 8,6 19 10 33 18 WNW 1011,6 8 0 0,0
20.05.2019 04:00:00 8,9 8,8 8,8 21 11 31 17 W 1011,5 4,1 0 0,0
20.05.2019 03:00:00 9,0 8,7 8,8 21 12 35 19 WNW 1011,7 6 0 0,6
20.05.2019 02:00:00 9,1 8,8 8,8 18 10 32 17 W 1011,8 8 0 0,0
20.05.2019 01:00:00 9,0 8,9 8,5 21 11 33 18 WNW 1012,0 7 0 0,2
20.05.2019 00:00:00 8,7 8,4 8,4 14 8 29 16 W 1012,1 28 0 0,4
19.05.2019 23:00:00 8,8 8,2 8,4 19 10 33 18 W 1012,1 14 0 0,2
19.05.2019 22:00:00 9,0 8,1 8,5 21 12 34 19 WNW 1011,4 38 0 0,6
19.05.2019 21:00:00 10,4 8,7 10,2 10 5 22 12 W 1010,3 30 0 0,0
19.05.2019 20:00:00 10,7 8,3 10,9 17 9 27 14 WNW 1009,9 39 0 0,0
19.05.2019 19:00:00 10,8 9,1 11,9 16 8 29 15 NW 1009,6 30 0 0,0
19.05.2019 18:00:00 10,8 8,7 12,0 21 12 34 18 NW 1009,6 25 0 0,0
19.05.2019 17:00:00 10,3 8,9 9,8 23 12 36 19 WNW 1009,7 21 0 0,2
19.05.2019 16:00:00 10,6 8,2 10,6 13 7 33 18 W 1009,4 19 0 0,0
19.05.2019 15:00:00 10,7 7,9 11,3 20 11 32 17 W 1009,3 38 4 0,0
19.05.2019 14:00:00 10,1 8,5 9,8 19 10 31 17 NW 1009,4 12 0 0,0
19.05.2019 13:00:00 9,1 7,4 9,1 20 11 31 17 W 1009,5 36 0 0,0
19.05.2019 12:00:00 8,8 7,7 9,5 22 12 31 17 W 1009,5 20 0 0,0
19.05.2019 11:00:00 9,4 8,8 8,7 18 10 25 13 W 1009,3 20 0 0,0
19.05.2019 10:00:00 8,1 7,2 8,5 16 9 24 13 WNW 1009,4 34 0 0,0
19.05.2019 09:00:00 8,1 7,0 8,0 13 7 21 12 W 1009,2 38 0 0,0
19.05.2019 08:00:00 7,6 7,0 7,2 11 6 17 9 W 1009,3 40 0 0,0
19.05.2019 07:00:00 7,2 6,8 7,0 9 5 14 8 W 1009,3 28 0 0,0
19.05.2019 06:00:00 7,2 6,8 7,0 9 5 17 9 WNW 1009,2 31 0 0,0
19.05.2019 05:00:00 7,3 6,9 7,1 11 6 21 11 W 1009,2 30 0 0,0
19.05.2019 04:00:00 7,5 7,1 7,2 14 7 21 11 WNW 1009,3 41 0 0,0
19.05.2019 03:00:00 7,6 7,2 7,4 11 6 19 11 W 1009,4 29 0 0,0
19.05.2019 02:00:00 7,8 7,4 7,6 11 6 21 12 W 1009,8 27 0 0,0
19.05.2019 01:00:00 8,0 7,6 7,7 12 6 20 11 W 1010,2 23 0 0,0
19.05.2019 00:00:00 8,0 7,4 7,6 11 6 21 11 WSW 1010,4 27 0 0,0
18.05.2019 23:00:00 8,0 7,4 6,8 12 7 24 13 W 1010,5 33 0 1,2
18.05.2019 22:00:00 7,3 6,1 6,8 14 7 34 19 W 1010,5 3,6 0 2,2
18.05.2019 21:00:00 9,2 7,3 8,9 6 3 17 9 NNW 1009,1 59 32 0,0
18.05.2019 20:00:00 10,7 8,1 11,2 10 5 26 14 NW 1008,2 56 37 0,0
18.05.2019 19:00:00 10,4 7,5 11,1 18 10 27 15 WNW 1008,0 37 25 0,0
18.05.2019 18:00:00 11,3 7,4 11,9 16 9 26 14 WNW 1007,6 37 21 0,2
18.05.2019 17:00:00 12,0 6,1 15,7 13 7 29 16 WNW 1007,4 46 23 0,0
18.05.2019 16:00:00 11,6 7,1 11,8 13 7 25 14 W 1007,5 48 11 0,0
18.05.2019 15:00:00 9,7 7,1 10,8 17 9 33 18 WSW 1008,0 24 0 0,0
18.05.2019 14:00:00 9,6 7,0 10,2 18 10 27 14 WSW 1008,0 32 1 0,0
18.05.2019 13:00:00 10,0 7,6 11,7 17 9 32 17 WSW 1008,0 24 14 0,0
18.05.2019 12:00:00 9,8 7,4 9,0 15 8 29 15 W 1007,9 24 3 0,0
18.05.2019 11:00:00 8,4 7,5 8,4 19 10 29 15 WSW 1008,1 15 0 0,2
18.05.2019 10:00:00 8,0 7,4 8,2 14 7 24 13 WSW 1008,1 9 0 0,4
18.05.2019 09:00:00 7,8 7,5 7,7 12 6 22 12 WSW 1008,0 6 0 0,8
18.05.2019 08:00:00 7,6 7,2 7,4 12 6 21 12 WSW 1007,7 4,4 0 1,0
18.05.2019 07:00:00 7,5 7,2 7,1 13 7 24 13 W 1007,3 6 0 0,4
18.05.2019 06:00:00 7,3 6,9 6,8 16 8 31 17 W 1006,9 6 0 0,6
18.05.2019 05:00:00 7,1 6,7 6,9 21 11 36 19 W 1007,1 6 0 0,9
18.05.2019 04:00:00 7,7 7,4 7,5 21 12 35 19 WSW 1007,0 5 0 0,6
18.05.2019 03:00:00 8,0 7,7 7,9 23 12 36 19 W 1007,1 7 0 0,8
18.05.2019 02:00:00 8,4 8,1 8,2 17 9 25 13 W 1007,1 3,3 0 2,2
18.05.2019 01:00:00 8,4 8,3 8,2 6 3 11 6 WSW 1006,8 4,7 0 0,6
18.05.2019 00:00:00 8,3 8,0 8,0 5 3 8 5 WSW 1006,9 12 0 0,8
17.05.2019 23:00:00 8,1 7,8 7,8 4 2 11 6 S 1006,9 13 0 0,6
17.05.2019 22:00:00 8,0 7,4 7,6 9 5 13 7 SSE 1006,7 19 0 0,2
17.05.2019 21:00:00 7,9 7,1 7,6 11 6 26 14 SE 1006,3 36 0 0,6
17.05.2019 20:00:00 8,1 7,2 7,8 16 8 30 16 SE 1006,1 10 0 1,5
17.05.2019 19:00:00 8,4 7,2 8,5 17 9 31 17 SE 1005,9 10 0 1,2
17.05.2019 18:00:00 8,5 7,0 8,5 21 11 40 22 SE 1006,1 13 0 0,8
17.05.2019 17:00:00 8,8 7,6 8,4 23 13 40 22 ESE 1005,8 9 0 1,6
17.05.2019 16:00:00 8,6 7,2 8,7 22 12 39 21 ESE 1006,0 6 0 2,0
17.05.2019 15:00:00 8,7 7,6 8,3 24 13 39 21 SE 1005,8 8 0 2,0
17.05.2019 14:00:00 8,6 6,7 8,1 23 12 41 22 ESE 1005,5 11 0 1,6
17.05.2019 13:00:00 8,9 7,0 8,7 25 13 44 24 SE 1005,3 17 0 1,2
17.05.2019 12:00:00 9,6 6,9 9,0 19 10 35 19 SE 1004,6 24 0 0,8
17.05.2019 11:00:00 9,1 8,3 8,7 16 9 26 14 ENE 1004,4 12 0 0,9
17.05.2019 10:00:00 8,7 8,1 8,5 14 8 26 14 ENE 1004,6 3,1 0 2,0
17.05.2019 09:00:00 8,7 7,9 8,4 13 7 23 12 ENE 1004,5 3,5 0 2,2
17.05.2019 08:00:00 9,2 7,8 8,5 12 7 49 26 ENE 1003,7 5 0 1,0
17.05.2019 07:00:00 10,4 7,1 8,6 22 12 42 23 ESE 1003,3 31 0 0,0
17.05.2019 06:00:00 11,2 6,7 9,5 21 11 33 18 E 1003,0 55 0 0,0
17.05.2019 05:00:00 10,9 7,9 10,2 17 9 37 20 E 1003,6 32 0 0,0
17.05.2019 04:00:00 11,4 7,9 10,5 24 13 37 20 ESE 1004,3 35 0 0,0
17.05.2019 03:00:00 11,1 6,0 10,6 25 13 46 25 SE 1005,2 53 0 0,0
17.05.2019 02:00:00 11,9 3,1 10,5 23 12 36 19 SE 1005,4 60 0 0,0
17.05.2019 01:00:00 11,7 3,7 9,3 11 6 21 12 ESE 1006,3 60 0 0,0
17.05.2019 00:00:00 11,1 3,9 9,2 13 7 23 13 SE 1007,0 60 0 0,0
16.05.2019 23:00:00 12,4 4,1 9,9 16 9 24 13 SE 1007,0 60 0 0,0
16.05.2019 22:00:00 13,0 5,6 8,7 14 8 21 11 SE 1007,0 60 0 0,0
16.05.2019 21:00:00 14,5 6,8 11,0 8 4 23 12 S 1005,8 60 22 0,0
16.05.2019 20:00:00 18,3 7,1 18,0 6 4 13 7 SW 1005,1 60 43 0,0
16.05.2019 19:00:00 19,4 6,8 21,3 6 3 14 7 SSW 1005,2 59 43 0,0
16.05.2019 18:00:00 19,4 4,3 19,9 4 2 17 9 NE 1005,3 60 41 0,0
16.05.2019 17:00:00 18,0 7,7 20,0 3 2 10 5 SSW 1006,7 50 5 0,0
16.05.2019 16:00:00 19,2 5,3 26,7 6 3 21 12 ENE 1006,8 57 43 0,0
16.05.2019 15:00:00 19,1 5,5 29,8 6 3 16 9 NNE 1007,7 19 58 0,0
16.05.2019 14:00:00 18,0 3,5 28,9 6 3 18 10 ENE 1008,6 30 57 0,0
16.05.2019 13:00:00 17,1 5,4 28,1 4 2 27 15 W 1009,4 57 60 0,0
16.05.2019 12:00:00 16,1 2,5 24,7 4 2 19 11 N 1010,0 60 60 0,0
16.05.2019 11:00:00 14,5 2,7 18,1 6 3 20 11 ESE 1011,1 51 51 0,0
16.05.2019 10:00:00 13,1 2,6 13,6 8 4 18 10 E 1011,9 55 54 0,0
16.05.2019 09:00:00 10,3 2,9 6,9 5 3 9 5 NE 1012,8 52 51 0,0
16.05.2019 08:00:00 7,4 2,3 -0,5 3 1 5 3 NE 1013,6 59 47 0,0
16.05.2019 07:00:00 3,3 0,7 -2,2 0 0 5 3 N 1014,8 56 14 0,0
16.05.2019 06:00:00 1,8 -0,6 -2,1 3 2 6 4 E 1015,1 46 0 0,0
16.05.2019 05:00:00 4,8 0,2 -1,6 3 2 8 5 ENE 1015,1 60 0 0,0
16.05.2019 04:00:00 5,6 0,6 -0,7 5 3 8 4 E 1015,4 60 0 0,0
16.05.2019 03:00:00 7,7 1,1 0,2 8 5 16 8 E 1015,2 60 0 0,0
16.05.2019 02:00:00 5,8 0,7 1,1 6 3 9 5 ESE 1016,2 60 0 0,0
16.05.2019 01:00:00 7,6 1,0 2,5 5 3 11 6 ESE 1016,4 60 0 0,0
16.05.2019 00:00:00 9,4 1,5 5,9 8 4 23 12 ESE 1015,9 60 0 0,0
15.05.2019 23:00:00 10,8 1,3 9,3 14 8 26 14 N 1016,1 60 0 0,0
15.05.2019 22:00:00 11,7 1,3 10,2 13 7 32 17 NNE 1015,6 60 0 0,0
15.05.2019 21:00:00 13,2 1,5 11,9 16 8 32 17 NNE 1014,8 60 35 0,0
15.05.2019 20:00:00 15,2 0,6 14,6 17 9 37 20 NNE 1014,0 52 60 0,0
15.05.2019 19:00:00 16,2 -0,1 18,2 20 11 40 21 NNE 1013,4 31 60 0,0
15.05.2019 18:00:00 17,2 -0,1 21,6 22 12 37 20 NNE 1013,1 28 60 0,0
15.05.2019 17:00:00 17,2 -1,0 24,7 17 9 39 21 NNE 1013,2 18 60 0,0
15.05.2019 16:00:00 17,1 -1,1 25,6 22 12 39 21 N 1013,5 20 60 0,0
15.05.2019 15:00:00 16,8 -1,8 26,9 20 11 34 18 NNE 1013,8 20 60 0,0
15.05.2019 14:00:00 16,0 -2,1 25,4 19 10 38 20 NNE 1014,2 40 60 0,0
15.05.2019 13:00:00 15,2 -1,8 23,2 19 10 43 23 N 1014,5 19 60 0,0

tt = temperature
td = dewpoint
tt 5cm = temperature 5cm
ff = wind speed
fx = gusts
dd = wind direction
ppp = reduced air pressure
vv = visibility
sd = sunshine duration
rr = precipitation

Next stations